Location: B?dimalle
(17.1788°N, 80.5377°E)
Time: 09:27:59
(UTC+00:00)

Tiros 1 despin weight - Pass Details

Date: 23 February 2026
Orbit: 556 x 593 km, 48.2° (Epoch: 10 March)

Event Time Altitude Azimuth Distance (km) Brightness Sun altitude
Rises 15:57:56 0° 301° (WNW) 2,729 - -47.3°
Reaches altitude 10° 16:00:26 10° 288° (WNW) 1,838 - -47.9°
Maximum altitude 16:03:56 26° 232° (SW) 1,127 - -48.7°
Drops below altitude 10° 16:07:28 10° 175° (S) 1,852 - -49.6°
Sets 16:10:01 0° 162° (SSE) 2,754 - -50.2°
